{"data":{"norad_id":47760,"epoch":"2026-05-24T15:04:29.377056Z","epoch_age_seconds":103805,"freshness":"FRESH","line1":"1 47760U 21017AQ  26144.62811779  .00004322  00000+0  15087-3 0  9997","line2":"2 47760  53.1581 223.5186 0001107  81.4579 278.6547 15.31716242289324","mean_motion":15.31716242,"eccentricity":0.0001107,"inclination_deg":53.1581,"raan_deg":223.5186,"arg_perigee_deg":81.4579,"mean_anomaly_deg":278.6547,"bstar":0.00015087,"rev_number":28932,"period_min":94.012191064825,"perigee_km":469.93341377294,"apogee_km":471.44974442035,"semimajor_km":6848.8285790966,"source":"CELESTRAK","updated_at":"2026-05-25T13:38:16.569025Z"}}